• In Russia
  • List of Countries
  • For 7 days
  • Water Temperature
  • Satellite Maps
  • Weather Map
  • Weather Widgets
  • user-avatar
    Login

    Hourly Weather Konstantyna

    Today, 25 June, Tuesday

    Time Temperature Precipitation Wind Pressure Humidity
    00:00 +30°C° 0 mm 1 mps 711 mmHg 16%
    01:00 +30°C° 0 mm 1 mps 711 mmHg 15%
    02:00 +29°C° 0 mm 1 mps 711 mmHg 14%
    03:00 +29°C° 0 mm 2 mps 710 mmHg 14%
    04:00 +31°C° 0 mm 2 mps 711 mmHg 14%
    05:00 +32°C° 0 mm 1 mps 711 mmHg 15%
    06:00 +33°C° 0 mm 1 mps 712 mmHg 16%
    07:00 +37°C° 0 mm 2 mps 713 mmHg 13%
    08:00 +39°C° 0 mm 3 mps 713 mmHg 10%
    09:00 +42°C° 0 mm 4 mps 714 mmHg 8%
    10:00 +43°C° 0 mm 3 mps 714 mmHg 7%
    11:00 +44°C° 0 mm 3 mps 714 mmHg 7%
    12:00 +43°C° 0 mm 2 mps 714 mmHg 6%
    13:00 +43°C° 0 mm 2 mps 714 mmHg 8%
    14:00 +44°C° 0 mm 3 mps 713 mmHg 9%
    15:00 +43°C° 0 mm 3 mps 713 mmHg 10%
    16:00 +40°C° 0 mm 3 mps 713 mmHg 13%
    17:00 +38°C° 0 mm 3 mps 713 mmHg 17%
    18:00 +37°C° 0 mm 3 mps 713 mmHg 20%
    19:00 +35°C° 0 mm 2 mps 713 mmHg 22%
    20:00 +32°C° 0 mm 1 mps 713 mmHg 24%
    21:00 +30°C° 0 mm 1 mps 713 mmHg 26%
    22:00 +30°C° 0 mm 1 mps 713 mmHg 26%
    23:00 +30°C° 0 mm 1 mps 713 mmHg 26%

    Tomorrow, 26 June, Wednesday

    Time Temperature Precipitation Wind Pressure Humidity
    00:00 +27°C° 0 mm 0 mps 713 mmHg 25%
    01:00 +29°C° 0 mm 1 mps 712 mmHg 27%
    02:00 +29°C° 0 mm 1 mps 712 mmHg 28%
    03:00 +28°C° 0 mm 1 mps 712 mmHg 29%
    04:00 +30°C° 0 mm 1 mps 712 mmHg 28%
    05:00 +31°C° 0 mm 1 mps 713 mmHg 27%
    06:00 +30°C° 0 mm 0 mps 713 mmHg 26%
    07:00 +34°C° 0 mm 1 mps 713 mmHg 23%
    08:00 +37°C° 0 mm 1 mps 714 mmHg 19%
    09:00 +40°C° 0 mm 1 mps 714 mmHg 16%
    10:00 +42°C° 0 mm 3 mps 714 mmHg 14%
    11:00 +43°C° 0 mm 4 mps 714 mmHg 12%
    12:00 +45°C° 0 mm 5 mps 714 mmHg 10%
    13:00 +43°C° 0 mm 5 mps 714 mmHg 10%
    14:00 +44°C° 0 mm 6 mps 714 mmHg 11%
    15:00 +44°C° 0 mm 7 mps 713 mmHg 11%
    16:00 +41°C° 0 mm 6 mps 713 mmHg 15%
    17:00 +39°C° 0 mm 5 mps 713 mmHg 20%
    18:00 +36°C° 0 mm 4 mps 712 mmHg 24%
    19:00 +34°C° 0 mm 3 mps 713 mmHg 28%
    20:00 +30°C° 0 mm 2 mps 713 mmHg 32%
    21:00 +28°C° 0 mm 1 mps 713 mmHg 36%
    22:00 +28°C° 0 mm 1 mps 713 mmHg 36%
    23:00 +27°C° 0 mm 1 mps 713 mmHg 36%

    Day after tomorrow, 27 June, Thursday

    Time Temperature Precipitation Wind Pressure Humidity
    00:00 +24°C° 0 mm 0 mps 712 mmHg 36%
    01:00 +24°C° 0 mm 0 mps 712 mmHg 36%
    02:00 +24°C° 0 mm 0 mps 712 mmHg 35%
    03:00 +23°C° 0 mm 0 mps 711 mmHg 35%
    04:00 +25°C° 0 mm 0 mps 712 mmHg 32%
    05:00 +26°C° 0 mm 0 mps 712 mmHg 30%
    06:00 +27°C° 0 mm 0 mps 712 mmHg 27%
    07:00 +31°C° 0 mm 1 mps 712 mmHg 25%
    08:00 +34°C° 0 mm 2 mps 713 mmHg 23%
    09:00 +35°C° 0 mm 2 mps 713 mmHg 21%
    10:00 +36°C° 0 mm 3 mps 713 mmHg 20%
    11:00 +37°C° 0 mm 4 mps 713 mmHg 20%
    12:00 +39°C° 0 mm 5 mps 713 mmHg 19%
    13:00 +37°C° 0 mm 5 mps 712 mmHg 20%
    14:00 +38°C° 0 mm 6 mps 712 mmHg 21%
    15:00 +38°C° 0 mm 6 mps 711 mmHg 23%
    16:00 +35°C° 0 mm 5 mps 711 mmHg 27%
    17:00 +33°C° 0 mm 5 mps 711 mmHg 31%
    18:00 +32°C° 0 mm 4 mps 711 mmHg 35%
    19:00 +29°C° 0 mm 3 mps 711 mmHg 41%
    20:00 +27°C° 0 mm 2 mps 711 mmHg 47%
    21:00 +25°C° 0 mm 1 mps 711 mmHg 53%
    22:00 +25°C° 0 mm 1 mps 711 mmHg 54%
    23:00 +24°C° 0 mm 1 mps 711 mmHg 55%

    28 June, Friday

    Time Temperature Precipitation Wind Pressure Humidity
    00:00 +22°C° 0 mm 0 mps 711 mmHg 56%
    01:00 +21°C° 0 mm 0 mps 711 mmHg 55%
    02:00 +21°C° 0 mm 0 mps 710 mmHg 55%
    03:00 +21°C° 0 mm 0 mps 710 mmHg 55%
    04:00 +22°C° 0 mm 0 mps 710 mmHg 51%
    05:00 +23°C° 0 mm 0 mps 710 mmHg 47%
    06:00 +25°C° 0 mm 0 mps 711 mmHg 44%
    07:00 +29°C° 0 mm 1 mps 711 mmHg 38%
    08:00 +31°C° 0 mm 1 mps 711 mmHg 32%
    09:00 +33°C° 0 mm 1 mps 712 mmHg 26%
    10:00 +35°C° 0 mm 2 mps 712 mmHg 23%
    11:00 +36°C° 0 mm 3 mps 711 mmHg 21%
    12:00 +37°C° 0 mm 3 mps 711 mmHg 18%
    13:00 +37°C° 0 mm 4 mps 711 mmHg 19%
    14:00 +37°C° 0 mm 5 mps 711 mmHg 19%
    15:00 +38°C° 0 mm 6 mps 710 mmHg 19%
    16:00 +35°C° 0 mm 5 mps 710 mmHg 23%
    17:00 +34°C° 0 mm 5 mps 710 mmHg 26%
    18:00 +32°C° 0 mm 4 mps 710 mmHg 30%
    19:00 +29°C° 0 mm 3 mps 710 mmHg 35%
    20:00 +27°C° 0 mm 2 mps 710 mmHg 39%
    21:00 +25°C° 0 mm 1 mps 710 mmHg 44%
    22:00 +24°C° 0 mm 1 mps 710 mmHg 45%
    23:00 +24°C° 0 mm 1 mps 710 mmHg 46%

    29 June, Saturday

    Time Temperature Precipitation Wind Pressure Humidity
    00:00 +23°C° 0 mm 1 mps 709 mmHg 48%
    01:00 +23°C° 0 mm 1 mps 709 mmHg 48%
    02:00 +22°C° 0 mm 1 mps 709 mmHg 48%
    03:00 +22°C° 0 mm 1 mps 709 mmHg 47%
    04:00 +24°C° 0 mm 1 mps 709 mmHg 43%
    05:00 +25°C° 0 mm 1 mps 709 mmHg 39%
    06:00 +27°C° 0 mm 1 mps 710 mmHg 35%
    07:00 +29°C° 0 mm 1 mps 710 mmHg 29%
    08:00 +30°C° 0 mm 0 mps 711 mmHg 23%
    09:00 +32°C° 0 mm 0 mps 711 mmHg 17%
    10:00 +35°C° 0 mm 1 mps 711 mmHg 16%
    11:00 +37°C° 0 mm 1 mps 711 mmHg 15%
    12:00 +39°C° 0 mm 2 mps 711 mmHg 14%
    13:00 +39°C° 0 mm 3 mps 711 mmHg 14%
    14:00 +40°C° 0 mm 4 mps 711 mmHg 15%
    15:00 +40°C° 0 mm 5 mps 711 mmHg 15%
    16:00 +39°C° 0 mm 5 mps 710 mmHg 19%
    17:00 +36°C° 0 mm 4 mps 710 mmHg 23%
    18:00 +34°C° 0 mm 4 mps 710 mmHg 27%
    19:00 +31°C° 0 mm 3 mps 710 mmHg 30%
    20:00 +29°C° 0 mm 2 mps 710 mmHg 33%
    21:00 +27°C° 0 mm 1 mps 710 mmHg 36%
    22:00 +27°C° 0 mm 1 mps 710 mmHg 37%
    23:00 +26°C° 0 mm 1 mps 710 mmHg 37%

    30 June, Sunday

    Time Temperature Precipitation Wind Pressure Humidity
    00:00 +26°C° 0 mm 1 mps 710 mmHg 38%
    01:00 +26°C° 0 mm 1 mps 710 mmHg 38%
    02:00 +25°C° 0 mm 1 mps 710 mmHg 39%
    03:00 +25°C° 0 mm 1 mps 709 mmHg 39%
    04:00 +26°C° 0 mm 1 mps 710 mmHg 36%
    05:00 +28°C° 0 mm 1 mps 710 mmHg 34%
    06:00 +29°C° 0 mm 1 mps 711 mmHg 31%
    07:00 +32°C° 0 mm 1 mps 711 mmHg 26%
    08:00 +34°C° 0 mm 1 mps 712 mmHg 22%
    09:00 +36°C° 0 mm 1 mps 712 mmHg 17%
    10:00 +37°C° 0 mm 1 mps 712 mmHg 15%
    11:00 +40°C° 0 mm 2 mps 712 mmHg 13%
    12:00 +41°C° 0 mm 2 mps 712 mmHg 11%
    13:00 +42°C° 0 mm 3 mps 712 mmHg 11%
    14:00 +42°C° 0 mm 4 mps 711 mmHg 11%
    15:00 +42°C° 0 mm 4 mps 711 mmHg 11%
    16:00 +40°C° 0 mm 4 mps 711 mmHg 13%
    17:00 +38°C° 0 mm 4 mps 710 mmHg 16%
    18:00 +36°C° 0 mm 4 mps 710 mmHg 18%
    19:00 +34°C° 0 mm 3 mps 710 mmHg 23%
    20:00 +31°C° 0 mm 2 mps 710 mmHg 27%
    21:00 +29°C° 0 mm 1 mps 710 mmHg 31%
    22:00 +28°C° 0 mm 1 mps 710 mmHg 31%
    23:00 +28°C° 0 mm 1 mps 710 mmHg 31%
    Show more